sat.trackr.live / text

‹ back to catalog

STARLINK-32498

NORAD 61966 · 2024-210H

PAYLOAD ACTIVE UNKNOWN

§ Identity

Operator
Country
US
Launch date
2024-11-14
Launch site
AFETR
Launch vehicle
Mass (kg)
RCS (m²)

Purposes: comms

External: N2YO · Heavens-Above · Gunter

§ Orbital elements

Epoch: 2026-05-24T21:23:11.262048Z

Period
94.27 min
Inclination
43.0001°
Eccentricity
0.0000535
Mean motion
15.27590570 rev/d
Perigee alt
482.7 km
Apogee alt
483.4 km
Semi-major
6,861.2 km
B*
5.6457e-4
RAAN
94.7991°
Arg perigee
259.3876°
Mean anomaly
100.6915°
Rev number
8,673

§ Raw data

STARLINK-324981 61966U 24210H   26144.89110257  .00015311  00000+0  56457-3 0  99972 61966  43.0001  94.7991 0000535 259.3876 100.6915 15.27590570 86737

JSON: /api/v1/satellites/61966 · /tle

For live sub-satellite position, see the globe view (requires WebGL).

§ Visibility from observer

Set your observer location to see the next 7 days of passes ≥ 10°. The values pass through the URL so the page stays shareable.

No JS? Fill the form by hand. The geolocation button needs JavaScript.